Location: Aufkirchen
(47.9603°N, 11.3653°E)
Time: 10:46:14
(UTC+01:00)

Tiros 1 - Pass Details

Date: 30 November 2020
Orbit: 630 x 663 km, 48.4° (Epoch: 28 January)

Event Time Altitude Azimuth Distance (km) Brightness Sun altitude
Rises 14:54:57 0° 221° (SW) 2,983 12.9 10.4°
Reaches altitude 10° 14:57:26 10° 212° (SSW) 2,074 12.4 10.1°
Maximum altitude 15:01:46 35° 148° (SSE) 1,069 8.6 9.6°
Drops below altitude 10° 15:06:07 10° 83° (E) 2,075 9.3 9.1°
Sets 15:08:37 0° 74° (ENE) 2,986 10.0 8.9°
